#timestamp,LO_Frequency,Hit,StdDev 
1653523215.1,286046998.1,N
1653523216.0,286046998.1,N
1653523235.8,286046999.3,N
1653523255.7,286046996.6,Y
1653523275.5,286046997.0,P
1653523295.3,286046996.9,P
1653523315.2,286046999.4,N
1653523335.0,286046999.1,N
1653523335.9,286046999.1,N
1653523355.8,286046998.3,N
1653523375.6,286047000.9,N
1653523395.4,286046998.8,N
1653523415.3,286046999.2,N
1653523435.1,286046999.0,N
1653523455.8,286046999.6,N
1653523475.7,286046997.0,N
1653523495.5,286046997.0,N
1653523515.4,286046996.7,N
1653523535.2,286046999.5,N
1653523555.0,286046998.9,N
1653523555.9,286046998.9,N
1653523575.8,286046998.7,N
1653523595.6,286046998.9,N
1653523615.5,286046999.6,N
1653523635.3,286046997.3,N
1653523655.1,286046997.6,N
1653523675.9,286046997.1,N
1653523695.7,286046999.4,N
1653523715.5,286046998.3,N
1653523735.4,286046999.3,N
1653523755.2,286046997.1,N
1653523775.1,286046997.5,N
1653523776.0,286046997.5,N
1653523795.8,286046997.8,N
1653523815.6,286046997.6,N
1653523835.5,286046995.3,Y
1653523855.3,286046996.5,P
1653523875.1,286046999.3,N
1653523895.9,286046998.3,N
1653523915.7,286046998.1,N
1653523935.6,286046998.8,N
1653523955.4,286046999.6,N
1653523975.2,286046997.3,N
1653523995.1,286046996.6,Y
1653523996.0,286046996.6,P
1653524015.8,286047001.1,N
1653524035.7,286047001.1,N
1653524055.5,286046998.7,N
1653524075.3,286046998.3,N
1653524095.2,286047001.2,N
1653524115.0,286046998.5,N
1653524115.9,286046998.5,N
1653524135.8,286046998.7,N
1653524155.6,286046998.1,N
1653524175.4,286047000.0,N
1653524195.3,286047002.8,N
1653524215.1,286047001.0,N
1653524235.4,286047001.2,N
1653524255.3,286046998.2,N
1653524275.1,286047001.1,N
1653524276.0,286047001.1,N
1653524295.8,286047000.5,N
1653524315.7,286046999.9,N
1653524335.5,286047000.5,N
1653524355.3,286047002.7,N
1653524375.2,286047001.6,N
1653524395.0,286047001.7,N
1653524395.9,286047001.7,N
1653524415.8,286047003.2,N
1653524435.6,286047001.3,N
1653524455.4,286047003.8,N
1653524475.3,286047003.9,N
1653524495.1,286047004.1,N
1653524515.8,286047003.5,N
1653524535.7,286047001.4,N
1653524555.5,286047001.7,N
1653524575.4,286047003.8,N
1653524595.2,286047003.3,N
1653524615.0,286047004.2,N
1653524615.9,286047004.2,N
1653524635.8,286047003.9,N
1653524655.6,286047004.2,N
1653524675.5,286047004.1,N
1653524695.3,286047003.3,N
1653524715.1,286047005.9,Y
1653524735.9,286047004.3,P
1653524755.7,286047003.7,P
1653524775.5,286047002.1,N
1653524795.4,286047002.7,N
1653524815.2,286047002.3,N
1653524835.1,286047002.5,Y
1653524836.0,286047002.5,P
1653524855.8,286046998.9,P
1653524875.6,286047000.8,N
1653524895.5,286046999.9,N
1653524915.3,286047000.0,N
1653524935.2,286047000.9,N
1653524955.9,286047000.9,N
1653524975.7,286047000.6,N
1653524995.6,286047000.9,N
1653525015.4,286046998.1,N
1653525035.3,286046998.5,N
1653525055.1,286046998.2,N
1653525056.0,286046998.2,N
1653525075.8,286046999.3,N
1653525095.7,286046999.1,N
1653525115.5,286046998.3,N
1653525135.3,286047001.1,N
1653525155.2,286046998.6,N
1653525175.0,286047000.3,N
1653525175.9,286047000.3,N
1653525195.8,286047000.6,N
1653525215.6,286047000.9,N
1653525235.4,286047000.6,N
1653525255.3,286047000.2,N
1653525275.1,286047000.2,N
1653525295.8,286046999.9,N
1653525315.7,286046999.9,N
1653525335.5,286047000.0,N
1653525355.4,286047000.2,N
1653525375.2,286047000.9,N
1653525395.0,286047000.7,N
1653525395.9,286047000.7,N
1653525415.8,286047000.4,N
1653525435.6,286046998.1,N
1653525455.4,286047000.0,N
1653525475.3,286047000.9,N
1653525495.1,286047000.7,N
1653525515.9,286046998.6,N
1653525535.7,286046998.1,N
1653525555.5,286046998.5,N
1653525575.4,286047000.8,N
1653525595.2,286047001.0,N
1653525615.0,286047000.7,N
1653525616.0,286047000.7,N
1653525635.8,286047000.4,N
1653525655.6,286047000.3,N
1653525675.5,286047000.8,N
1653525695.3,286047000.6,N
1653525715.1,286047000.2,N
1653525735.9,286047000.7,N
1653525755.7,286047000.8,N
1653525775.6,286047000.6,N
1653525795.4,286047001.1,N
1653525815.2,286047001.0,N
1653525835.1,286046999.8,N
1653525836.0,286046999.8,N
1653525855.8,286047000.3,N
1653525875.6,286047000.2,N
1653525895.5,286047000.3,N
1653525915.3,286047000.6,N
1653525935.2,286047002.8,Y
1653525955.9,286047001.0,P
1653525975.7,286047001.0,N
1653525995.6,286047000.8,N
1653526015.4,286047000.6,N
1653526035.2,286047000.2,N
1653526055.1,286047002.8,Y
1653526056.0,286047002.8,P
1653526075.8,286047001.0,N
1653526095.7,286047000.6,N
1653526115.5,286046998.1,N
1653526135.3,286046998.7,N
1653526155.2,286047001.0,N
1653526175.0,286047000.7,N
1653526175.9,286047000.7,N
1653526195.8,286047000.8,N
1653526215.6,286047000.7,N
1653526235.4,286047000.4,N
1653526255.3,286047002.8,N
1653526275.1,286047000.3,N
1653526295.8,286047000.1,N
1653526315.7,286047000.4,N
1653526335.5,286047000.6,N
1653526355.4,286047000.8,N
1653526375.2,286047002.6,N
1653526395.1,286047002.6,N
1653526396.0,286047002.6,N
1653526415.8,286047000.0,N
1653526435.6,286047000.0,N
1653526455.5,286047002.8,N
1653526475.3,286047000.2,N
1653526495.1,286047000.4,N
1653526515.9,286047000.9,N
1653526535.7,286047002.1,N
1653526555.6,286047001.9,N
1653526575.4,286047002.7,N
1653526595.2,286047002.7,N
1653526615.1,286047002.4,N
1653526616.0,286047002.4,N
1653526635.8,286047000.2,N
1653526655.7,286047000.4,N
1653526675.5,286047000.6,N
1653526695.3,286047000.6,N
1653526715.2,286047002.8,N
1653526735.9,286047000.1,N
1653526755.7,286047002.7,N
1653526775.6,286047000.1,N
1653526795.4,286047002.1,N
